Regional Weather Roundup
Issued by NWS Jackson, KY

Home | Current Version | Previous Version | Graphics & Text | Print | Product List | Glossary On
Versions: 1 2 3 4 5 6 7 8 9 10 11 12 13 14 15 16 17 18 19 20 21 22 23 24 25 26 27 28 29 30 31 32 33 34 35 36 37 38 39 40 41 42 43 44 45 46 47 48 49 50
244
ASUS43 KJKL 181710
RWRJKL

EAST KENTUCKY HOURLY WEATHER ROUNDUP
NATIONAL WEATHER SERVICE JACKSON KY
1200 PM EST THU JAN 18 2018

NOTE: "FAIR" INDICATES FEW OR NO CLOUDS BELOW 12,000 FEET WITH
NO SIGNIFICANT WEATHER AND/OR OBSTRUCTIONS TO VISIBILITY.

* THESE REPORTS ARE NOT UNDER NWS QUALITY CONTROL AND MAY NOT
  REPORT WEATHER SUCH AS PRECIPITATION AND FOG.

KYZ079-080-083-085-087-088-110-112-115-119-120-181800
...EASTERN KENTUCKY...

CITY           SKY/WX    TMP DP  RH WIND       PRES   REMARKS
JACKSON          N/A     21  11  65 VRB5      30.41F WCI  15
LONDON           N/A     19  11  70 S7        30.46F WCI  10
SOMERSET*        N/A     21  10  63 S8        30.49F WCI  12
MONTICELLO*      N/A     31  14  49 E5        30.49F WCI  26
WILLIAMSBURG*    N/A     23   9  54 MISG      30.47F
MIDDLESBORO*     N/A     22  12  64 CALM      30.49F
HARLAN APT*      N/A     23   9  54 CALM      30.45S
PIKE CO APT*     N/A     22  10  59 S6        30.42F WCI  14
BIG SANDY APT*   N/A     22  10  59 SW7       30.42F WCI  13
MOREHEAD APT*    N/A     23   9  54 SW10G16   30.43F WCI  12
ASHLAND*         N/A     23  12  62 SW10      30.43F WCI  12
$$

KYZ035-036-041-042-044-050-067-078-099-181800
...CENTRAL KENTUCKY...

CITY           SKY/WX    TMP DP  RH WIND       PRES   REMARKS
MT STERLING*     N/A     23  12  63 W10G17    30.43F WCI  12
FLEMING/MASON*   N/A     21  10  63 SW15      30.39F WCI   8
DANVILLE*        N/A     19  10  68 SW8       30.45F WCI   9
LEXINGTON        N/A     21  12  68 S15       30.41F WCI   8
FRANKFORT        N/A     22   9  57 SW14      30.41F WCI   9
LOUISVILLE       N/A     24  12  60 SW13      30.44F WCI  12
LEBANON*         N/A     19  10  68 S10       30.46F WCI   8
GLASGOW*         N/A     24  12  61 SW6       30.50F WCI  17
BOWLING GREEN    N/A     21  12  68 SW10      30.52F WCI  10
$$

KYZ091>093-OHZ055-061-077-WVZ005-015-034-035-042-181800
...SOUTHERN OHIO/WEST VIRGINIA...

CITY           SKY/WX    TMP DP  RH WIND       PRES   REMARKS
COVINGTON        N/A     22  11  62 SW12      30.32F WCI  10
COLUMBUS         N/A     21   9  59 SW16G23   30.28F WCI   7
DAYTON           N/A     21  12  68 SW18      30.24F WCI   6
WILMINGTON       N/A     19  11  70 SW20      30.26F WCI   3
HUNTINGTON       N/A     21   9  59 SW13      30.41F WCI   9
CHARLESTON       N/A     23   9  55 SW9G18    30.39F WCI  13
BECKLEY          N/A     17   6  62 W14       30.30F HAZE    WCI   3
BLUEFIELD        N/A     16   3  56 W12G22    30.28F WCI   3
LOGAN CO APT*    N/A     21   9  58 VRB3G13   30.37F
$$

VAZ002-007-008-TNZ017-027-036-066-071-181800
...SOUTHWEST VIRGINIA/EAST TENNESSEE...

CITY           SKY/WX    TMP DP  RH WIND       PRES   REMARKS
WISE*            N/A     21   9  58 W5        30.34F WCI  15
JONESVILLE*      N/A     21  10  63 CALM      30.49F
ABINGDON*        N/A     20  10  64 W10       30.40F WCI   9
BRISTOL          N/A     19  11  70 S5        30.46F WCI  12
MORRISTOWN*    SUNNY     23  10  58 VRB3      30.47F
SEVIERVILLE*   SUNNY     21   9  58 CALM      30.49F
KNOXVILLE        N/A     23  12  62 VRB5      30.50F WCI  17
LAFOLLETTE*    SUNNY     25  12  58 CALM      30.52F
OAK RIDGE        N/A     22  10  60 VRB3      30.52F
CROSSVILLE       N/A     24   8  50 NE3       30.42F
NASHVILLE        N/A     25  12  58 S3        30.53F
$$

...KEY TO REMARKS...
VSB - VISIBILITY IN MILES
WCI - WIND CHILL INDEX
HX  - HEAT INDEX

$$




USA.gov is the U.S. government's official web portal to all federal, state and local government web resources and services.